This is the latest recevied weather packets stored in our database for station/object KD4MBW. If no packets are shown the sender has not sent any weather packets the latest 10 day(s).
| Time | Temp. | Humidity | Pressure | Rain* | Wind** | Luminosity | Snow |
|---|---|---|---|---|---|---|---|
| 1787398702 | 24.44° C | 99% | 1015.6 hPa | 0 mm | - | 33 W/m² | - |
| 1787398399 | 24.44° C | 99% | 1015.5 hPa | 0 mm | - | 25 W/m² | - |
| 1787398095 | 24.44° C | 99% | 1015.1 hPa | 0 mm | - | 19 W/m² | - |
| 1787397793 | 24.44° C | 99% | 1015.1 hPa | 0 mm | - | 12 W/m² | - |
| 1787397489 | 24.44° C | 99% | 1015.2 hPa | 0 mm | - | 7 W/m² | - |
| 1787397184 | 24.44° C | 99% | 1015.2 hPa | 0 mm | - | 3 W/m² | - |
| 1787396874 | 24.44° C | 99% | 1015.3 hPa | 0 mm | - | 1 W/m² | - |
| 1787396570 | 24.44° C | 99% | 1015.1 hPa | 0 mm | - | 0 W/m² | - |
| 1787396269 | 24.44° C | 99% | 1015 hPa | 0 mm | - | 0 W/m² | - |
| 1787395964 | 24.44° C | 99% | 1015.2 hPa | 0 mm | - | 0 W/m² | - |
| 1787395658 | 24.44° C | 99% | 1015 hPa | 0 mm | - | 0 W/m² | - |
| 1787395354 | 24.44° C | 99% | 1015 hPa | 0 mm | - | 0 W/m² | - |
| 1787395048 | 24.44° C | 99% | 1015 hPa | 0 mm | - | 0 W/m² | - |
| 1787394744 | 24.44° C | 99% | 1014.7 hPa | 0 mm | - | 0 W/m² | - |
| 1787394440 | 24.44° C | 99% | 1014.8 hPa | 0 mm | - | 0 W/m² | - |
| 1787394135 | 24.44° C | 99% | 1014.8 hPa | 0 mm | - | 0 W/m² | - |
| 1787393829 | 24.44° C | 99% | 1015 hPa | 0 mm | - | 0 W/m² | - |
| 1787393525 | 25° C | 99% | 1014.9 hPa | 0 mm | - | 0 W/m² | - |
| 1787393221 | 25° C | 99% | 1014.7 hPa | 0 mm | - | 0 W/m² | - |
| 1787392916 | 25° C | 99% | 1014.7 hPa | 0 mm | - | 0 W/m² | - |
| 1787392614 | 25° C | 99% | 1014.8 hPa | 0 mm | - | 0 W/m² | - |
| 1787392310 | 25° C | 99% | 1014.8 hPa | 0 mm | - | 0 W/m² | - |
| 1787392005 | 25° C | 99% | 1014.7 hPa | 0 mm | - | 0 W/m² | - |
| 1787391702 | 25° C | 99% | 1014.8 hPa | 0 mm | - | 0 W/m² | - |
| 1787391397 | 25° C | 99% | 1014.7 hPa | 0 mm | - | 0 W/m² | - |
* Rain latest hour (hover to see other rain measurements)
** Current wind speed in m/s (hover to see current wind gust speed)